﻿測定場所 (Monitoring sites),日付 (Measurement date),時間 (Measurement time),線量率 最大値 (max) μGy/h,線量率 最小値 (min) μGy/h,線量率 平均値 (average) μGy/h,
足立 (Adachi),2018-03-11,23:01～24:00,0.0339,0.0284,0.0308,
足立 (Adachi),2018-03-11,22:01～23:00,0.0329,0.0285,0.0310,
足立 (Adachi),2018-03-11,21:01～22:00,0.0324,0.0287,0.0307,
足立 (Adachi),2018-03-11,20:01～21:00,0.0325,0.0290,0.0306,
足立 (Adachi),2018-03-11,19:01～20:00,0.0332,0.0284,0.0306,
足立 (Adachi),2018-03-11,18:01～19:00,0.0332,0.0278,0.0304,
足立 (Adachi),2018-03-11,17:01～18:00,0.0326,0.0284,0.0304,
足立 (Adachi),2018-03-11,16:01～17:00,0.0324,0.0291,0.0306,
足立 (Adachi),2018-03-11,15:01～16:00,0.0324,0.0291,0.0307,
足立 (Adachi),2018-03-11,14:01～15:00,0.0331,0.0293,0.0306,
足立 (Adachi),2018-03-11,13:01～14:00,0.0326,0.0286,0.0306,
足立 (Adachi),2018-03-11,12:01～13:00,0.0331,0.0290,0.0308,
足立 (Adachi),2018-03-11,11:01～12:00,0.0325,0.0290,0.0311,
足立 (Adachi),2018-03-11,10:01～11:00,0.0322,0.0290,0.0308,
足立 (Adachi),2018-03-11,09:01～10:00,0.0331,0.0291,0.0308,
足立 (Adachi),2018-03-11,08:01～09:00,0.0330,0.0291,0.0307,
足立 (Adachi),2018-03-11,07:01～08:00,0.0324,0.0285,0.0309,
足立 (Adachi),2018-03-11,06:01～07:00,0.0323,0.0291,0.0306,
足立 (Adachi),2018-03-11,05:01～06:00,0.0333,0.0287,0.0307,
足立 (Adachi),2018-03-11,04:01～05:00,0.0330,0.0288,0.0306,
足立 (Adachi),2018-03-11,03:01～04:00,0.0329,0.0280,0.0307,
足立 (Adachi),2018-03-11,02:01～03:00,0.0326,0.0289,0.0305,
足立 (Adachi),2018-03-11,01:01～02:00,0.0325,0.0284,0.0307,
足立 (Adachi),2018-03-11,00:01～01:00,0.0325,0.0282,0.0304,
足立 (Adachi),2018-03-10,23:01～24:00,0.0325,0.0288,0.0304,
足立 (Adachi),2018-03-10,22:01～23:00,0.0317,0.0288,0.0302,
足立 (Adachi),2018-03-10,21:01～22:00,0.0323,0.0285,0.0306,
足立 (Adachi),2018-03-10,20:01～21:00,0.0323,0.0286,0.0301,
足立 (Adachi),2018-03-10,19:01～20:00,0.0329,0.0278,0.0305,
足立 (Adachi),2018-03-10,18:01～19:00,0.0320,0.0280,0.0303,
足立 (Adachi),2018-03-10,17:01～18:00,0.0327,0.0276,0.0303,
足立 (Adachi),2018-03-10,16:01～17:00,0.0325,0.0287,0.0304,
足立 (Adachi),2018-03-10,15:01～16:00,0.0320,0.0281,0.0304,
足立 (Adachi),2018-03-10,14:01～15:00,0.0323,0.0288,0.0303,
足立 (Adachi),2018-03-10,13:01～14:00,0.0322,0.0281,0.0306,
足立 (Adachi),2018-03-10,12:01～13:00,0.0324,0.0281,0.0303,
足立 (Adachi),2018-03-10,11:01～12:00,0.0323,0.0285,0.0305,
足立 (Adachi),2018-03-10,10:01～11:00,0.0323,0.0290,0.0304,
足立 (Adachi),2018-03-10,09:01～10:00,0.0324,0.0279,0.0302,
足立 (Adachi),2018-03-10,08:01～09:00,0.0321,0.0286,0.0303,
足立 (Adachi),2018-03-10,07:01～08:00,0.0325,0.0287,0.0304,
足立 (Adachi),2018-03-10,06:01～07:00,0.0331,0.0281,0.0305,
足立 (Adachi),2018-03-10,05:01～06:00,0.0335,0.0294,0.0315,
足立 (Adachi),2018-03-10,04:01～05:00,0.0370,0.0315,0.0337,
足立 (Adachi),2018-03-10,03:01～04:00,0.0407,0.0333,0.0369,
足立 (Adachi),2018-03-10,02:01～03:00,0.0457,0.0367,0.0412,
足立 (Adachi),2018-03-10,01:01～02:00,0.0425,0.0349,0.0382,
足立 (Adachi),2018-03-10,00:01～01:00,0.0400,0.0344,0.0366,
足立 (Adachi),2018-03-09,23:01～24:00,0.0400,0.0336,0.0367,
足立 (Adachi),2018-03-09,22:01～23:00,0.0448,0.0360,0.0405,
足立 (Adachi),2018-03-09,21:01～22:00,0.0425,0.0338,0.0375,
足立 (Adachi),2018-03-09,20:01～21:00,0.0389,0.0330,0.0358,
足立 (Adachi),2018-03-09,19:01～20:00,0.0350,0.0298,0.0320,
足立 (Adachi),2018-03-09,18:01～19:00,0.0323,0.0286,0.0302,
足立 (Adachi),2018-03-09,17:01～18:00,0.0325,0.0278,0.0301,
足立 (Adachi),2018-03-09,16:01～17:00,0.0331,0.0291,0.0308,
足立 (Adachi),2018-03-09,15:01～16:00,0.0351,0.0303,0.0324,
足立 (Adachi),2018-03-09,14:01～15:00,0.0396,0.0324,0.0352,
足立 (Adachi),2018-03-09,13:01～14:00,0.0411,0.0346,0.0366,
足立 (Adachi),2018-03-09,12:01～13:00,0.0392,0.0326,0.0355,
足立 (Adachi),2018-03-09,11:01～12:00,0.0364,0.0288,0.0332,
足立 (Adachi),2018-03-09,10:01～11:00,0.0324,0.0289,0.0309,
足立 (Adachi),2018-03-09,09:01～10:00,0.0331,0.0286,0.0308,
足立 (Adachi),2018-03-09,08:01～09:00,0.0339,0.0286,0.0320,
足立 (Adachi),2018-03-09,07:01～08:00,0.0403,0.0316,0.0355,
足立 (Adachi),2018-03-09,06:01～07:00,0.0441,0.0367,0.0407,
足立 (Adachi),2018-03-09,05:01～06:00,0.0510,0.0410,0.0451,
足立 (Adachi),2018-03-09,04:01～05:00,0.0533,0.0449,0.0499,
足立 (Adachi),2018-03-09,03:01～04:00,0.0528,0.0446,0.0485,
足立 (Adachi),2018-03-09,02:01～03:00,0.0480,0.0406,0.0443,
足立 (Adachi),2018-03-09,01:01～02:00,0.0457,0.0386,0.0425,
足立 (Adachi),2018-03-09,00:01～01:00,0.0439,0.0370,0.0403,
足立 (Adachi),2018-03-08,23:01～24:00,0.0416,0.0354,0.0383,
足立 (Adachi),2018-03-08,22:01～23:00,0.0409,0.0345,0.0370,
足立 (Adachi),2018-03-08,21:01～22:00,0.0402,0.0349,0.0376,
足立 (Adachi),2018-03-08,20:01～21:00,0.0414,0.0354,0.0384,
足立 (Adachi),2018-03-08,19:01～20:00,0.0425,0.0363,0.0389,
足立 (Adachi),2018-03-08,18:01～19:00,0.0494,0.0399,0.0445,
足立 (Adachi),2018-03-08,17:01～18:00,0.0487,0.0423,0.0450,
足立 (Adachi),2018-03-08,16:01～17:00,0.0516,0.0434,0.0476,
足立 (Adachi),2018-03-08,15:01～16:00,0.0527,0.0443,0.0490,
足立 (Adachi),2018-03-08,14:01～15:00,0.0520,0.0426,0.0464,
足立 (Adachi),2018-03-08,13:01～14:00,0.0514,0.0445,0.0473,
足立 (Adachi),2018-03-08,12:01～13:00,0.0490,0.0398,0.0441,
足立 (Adachi),2018-03-08,11:01～12:00,0.0434,0.0352,0.0395,
足立 (Adachi),2018-03-08,10:01～11:00,0.0398,0.0341,0.0367,
足立 (Adachi),2018-03-08,09:01～10:00,0.0388,0.0348,0.0366,
足立 (Adachi),2018-03-08,08:01～09:00,0.0372,0.0336,0.0358,
足立 (Adachi),2018-03-08,07:01～08:00,0.0374,0.0311,0.0337,
足立 (Adachi),2018-03-08,06:01～07:00,0.0358,0.0317,0.0335,
足立 (Adachi),2018-03-08,05:01～06:00,0.0352,0.0288,0.0310,
足立 (Adachi),2018-03-08,04:01～05:00,0.0325,0.0296,0.0307,
足立 (Adachi),2018-03-08,03:01～04:00,0.0334,0.0297,0.0311,
足立 (Adachi),2018-03-08,02:01～03:00,0.0330,0.0286,0.0308,
足立 (Adachi),2018-03-08,01:01～02:00,0.0325,0.0291,0.0307,
足立 (Adachi),2018-03-08,00:01～01:00,0.0328,0.0285,0.0309,
足立 (Adachi),2018-03-07,23:01～24:00,0.0321,0.0281,0.0303,
足立 (Adachi),2018-03-07,22:01～23:00,0.0327,0.0284,0.0304,
足立 (Adachi),2018-03-07,21:01～22:00,0.0319,0.0279,0.0302,
足立 (Adachi),2018-03-07,20:01～21:00,0.0318,0.0279,0.0301,
足立 (Adachi),2018-03-07,19:01～20:00,0.0317,0.0287,0.0301,
足立 (Adachi),2018-03-07,18:01～19:00,0.0329,0.0282,0.0303,
足立 (Adachi),2018-03-07,17:01～18:00,0.0316,0.0279,0.0298,
足立 (Adachi),2018-03-07,16:01～17:00,0.0322,0.0277,0.0299,
足立 (Adachi),2018-03-07,15:01～16:00,0.0320,0.0278,0.0299,
足立 (Adachi),2018-03-07,14:01～15:00,0.0321,0.0281,0.0299,
足立 (Adachi),2018-03-07,13:01～14:00,0.0318,0.0282,0.0299,
足立 (Adachi),2018-03-07,12:01～13:00,0.0322,0.0280,0.0305,
足立 (Adachi),2018-03-07,11:01～12:00,0.0322,0.0280,0.0302,
足立 (Adachi),2018-03-07,10:01～11:00,0.0322,0.0271,0.0302,
足立 (Adachi),2018-03-07,09:01～10:00,0.0328,0.0288,0.0303,
足立 (Adachi),2018-03-07,08:01～09:00,0.0320,0.0284,0.0301,
足立 (Adachi),2018-03-07,07:01～08:00,0.0323,0.0287,0.0305,
足立 (Adachi),2018-03-07,06:01～07:00,0.0328,0.0286,0.0305,
足立 (Adachi),2018-03-07,05:01～06:00,0.0330,0.0290,0.0305,
足立 (Adachi),2018-03-07,04:01～05:00,0.0325,0.0288,0.0308,
足立 (Adachi),2018-03-07,03:01～04:00,0.0329,0.0285,0.0305,
足立 (Adachi),2018-03-07,02:01～03:00,0.0328,0.0291,0.0307,
足立 (Adachi),2018-03-07,01:01～02:00,0.0321,0.0293,0.0308,
足立 (Adachi),2018-03-07,00:01～01:00,0.0323,0.0290,0.0306,
足立 (Adachi),2018-03-06,23:01～24:00,0.0324,0.0290,0.0308,
足立 (Adachi),2018-03-06,22:01～23:00,0.0328,0.0292,0.0308,
足立 (Adachi),2018-03-06,21:01～22:00,0.0327,0.0291,0.0307,
足立 (Adachi),2018-03-06,20:01～21:00,0.0326,0.0284,0.0308,
足立 (Adachi),2018-03-06,19:01～20:00,0.0321,0.0285,0.0304,
足立 (Adachi),2018-03-06,18:01～19:00,0.0323,0.0286,0.0303,
足立 (Adachi),2018-03-06,17:01～18:00,0.0318,0.0281,0.0301,
足立 (Adachi),2018-03-06,16:01～17:00,0.0320,0.0277,0.0302,
足立 (Adachi),2018-03-06,15:01～16:00,0.0321,0.0278,0.0299,
足立 (Adachi),2018-03-06,14:01～15:00,0.0315,0.0280,0.0301,
足立 (Adachi),2018-03-06,13:01～14:00,0.0322,0.0281,0.0301,
足立 (Adachi),2018-03-06,12:01～13:00,0.0317,0.0288,0.0302,
足立 (Adachi),2018-03-06,11:01～12:00,0.0323,0.0288,0.0305,
足立 (Adachi),2018-03-06,10:01～11:00,0.0322,0.0290,0.0301,
足立 (Adachi),2018-03-06,09:01～10:00,0.0335,0.0281,0.0302,
足立 (Adachi),2018-03-06,08:01～09:00,0.0326,0.0286,0.0302,
足立 (Adachi),2018-03-06,07:01～08:00,0.0318,0.0282,0.0298,
足立 (Adachi),2018-03-06,06:01～07:00,0.0315,0.0281,0.0298,
足立 (Adachi),2018-03-06,05:01～06:00,0.0324,0.0285,0.0303,
足立 (Adachi),2018-03-06,04:01～05:00,0.0328,0.0289,0.0310,
足立 (Adachi),2018-03-06,03:01～04:00,0.0366,0.0308,0.0333,
足立 (Adachi),2018-03-06,02:01～03:00,0.0445,0.0346,0.0387,
足立 (Adachi),2018-03-06,01:01～02:00,0.0493,0.0374,0.0423,
足立 (Adachi),2018-03-06,00:01～01:00,0.0586,0.0421,0.0479,
足立 (Adachi),2018-03-05,23:01～24:00,0.0627,0.0505,0.0561,
足立 (Adachi),2018-03-05,22:01～23:00,0.0608,0.0391,0.0488,
足立 (Adachi),2018-03-05,21:01～22:00,0.0424,0.0301,0.0359,
足立 (Adachi),2018-03-05,20:01～21:00,0.0346,0.0293,0.0317,
足立 (Adachi),2018-03-05,19:01～20:00,0.0369,0.0295,0.0338,
足立 (Adachi),2018-03-05,18:01～19:00,0.0420,0.0348,0.0384,
足立 (Adachi),2018-03-05,17:01～18:00,0.0398,0.0305,0.0348,
足立 (Adachi),2018-03-05,16:01～17:00,0.0329,0.0283,0.0308,
足立 (Adachi),2018-03-05,15:01～16:00,0.0345,0.0305,0.0327,
足立 (Adachi),2018-03-05,14:01～15:00,0.0360,0.0311,0.0336,
足立 (Adachi),2018-03-05,13:01～14:00,0.0359,0.0310,0.0335,
足立 (Adachi),2018-03-05,12:01～13:00,0.0346,0.0288,0.0319,
足立 (Adachi),2018-03-05,11:01～12:00,0.0339,0.0281,0.0304,
足立 (Adachi),2018-03-05,10:01～11:00,0.0333,0.0293,0.0314,
足立 (Adachi),2018-03-05,09:01～10:00,0.0335,0.0296,0.0315,
足立 (Adachi),2018-03-05,08:01～09:00,0.0337,0.0290,0.0315,
足立 (Adachi),2018-03-05,07:01～08:00,0.0335,0.0291,0.0313,
足立 (Adachi),2018-03-05,06:01～07:00,0.0332,0.0284,0.0311,
足立 (Adachi),2018-03-05,05:01～06:00,0.0332,0.0288,0.0311,
足立 (Adachi),2018-03-05,04:01～05:00,0.0338,0.0291,0.0311,
足立 (Adachi),2018-03-05,03:01～04:00,0.0330,0.0292,0.0309,
足立 (Adachi),2018-03-05,02:01～03:00,0.0320,0.0286,0.0302,
足立 (Adachi),2018-03-05,01:01～02:00,0.0326,0.0282,0.0304,
足立 (Adachi),2018-03-05,00:01～01:00,0.0321,0.0288,0.0306,
